User: anonymous
Location: Albany
(35.0000°S, 118.0000°E)
Time: 09:47:13
(UTC-04:00)
Language:

JAS-1B - Orbit

View from above orbital plane
View from above orbital plane
View from above satellite
View from above satellite

Ground track
Ground track

The orbit data is extracted from the following two-line orbital elements,

1 20480U 90013C   14109.19076689  .00000013  00000-0  93584-4 0  7072
2 20480 099.0384 083.4305 0540965 127.4301 304.6584 12.83392520133562
Epoch (UTC): 19 April 2014 04:34:42
Eccentricity: 0.0540965
inclination: 99.0384°
perigee height: 911 km
apogee height: 1745 km
right ascension of ascending node: 83.4305°
argument of perigee: 127.4301°
revolutions per day: 12.83392520
mean anomaly at epoch: 304.6584°
orbit number at epoch: 13356

The dashed part of the orbit path shows where the satellite is in the earth's shadow,  

DLR